Regional Weather Roundup
Issued by NWS

Home | Current Version | Previous Version | Graphics & Text | Print | Product List | Glossary On
Versions: 1 2 3 4 5 6 7 8 9 10 11 12 13 14 15 16 17 18 19 20 21 22 23 24 25 26 27 28 29 30 31 32 33 34 35 36 37 38 39 40 41 42 43 44 45 46 47 48 49 50
000
ASUS43 KIND 260709
RWRIN

WEATHER ROUNDUP FOR INDIANA
NATIONAL WEATHER SERVICE INDIANAPOLIS IN
300 AM EDT SUN MAR 26 2017

NOTE: "FAIR" INDICATES FEW OR NO CLOUDS BELOW 12,000 FEET WITH NO
SIGNIFICANT WEATHER AND/OR OBSTRUCTIONS TO VISIBILITY.

* - STATION DOES NOT REPORT WEATHER SUCH AS PRECIPITATION OR FOG.

+ - STATION NOT QUALITY CONTROLLED BY THE NATIONAL WEATHER SERVICE.
    USE DATA WITH CAUTION...ESPECIALLY DEWPOINT AND RELATIVE
    HUMIDITY OBSERVATIONS.

INZ001>003-010>013-019-020-260800-
NORTHWEST INDIANA

CITY           SKY/WX    TMP DP  RH WIND       PRES   REMARKS
GARY /AIRPORT/ CLOUDY    53  50  90 E8        29.91F
KNOX *+        CLOUDY    48  37  66 E12       29.94F
LA PORTE +     MOCLDY    47  46  95 E14       29.95F FOG
MICHIGAN CITY+ CLOUDY    46  46 100 E7        29.94F
MONTICELLO +   RAIN      51  50  96 E9        29.93F
RENSSELAER +   CLOUDY    52  52 100 E12       29.92S
VALPARAISO     CLOUDY    50  48  93 E13       29.93F FOG

$$

LMZ046-743>745-260800-
SOUTHERN LAKE MICHIGAN

STATION/POSITION TIME  TEMP    WIND        PRES    WAVE
                       AIR SEA DIR/SP/G            HT
                 (UTC) (F)     (DEG/KT/KT) (MB)    (FT)
BURNS HARBOR     0610   51     110/ 14/ 22 1013.9
MICHIGAN CITY    0640   49     100/ 11/ 13   N/A

$$

INZ004-005-014>016-021>024-260800-
NORTH CENTRAL INDIANA

CITY           SKY/WX    TMP DP  RH WIND       PRES   REMARKS
GOSHEN         LGT RAIN  44  40  85 E13       29.99F
LOGANSPORT +   LGT RAIN  46  46 100 E10       29.96F
PERU/GRISSOM   CLOUDY    49  49 100 E8        29.95S
ROCHESTER +    CLOUDY    48  46  93 E9        29.97S
SOUTH BEND     LGT RAIN  44  32  62 E15       29.97F
WARSAW +       CLOUDY    43  41  93 E10       29.99F

$$

INZ006>009-017-018-025>027-260800-
NORTHEAST INDIANA

CITY           SKY/WX    TMP DP  RH WIND       PRES   REMARKS
ANGOLA *+      CLOUDY    39  39 100 E13       30.04S
AUBURN +       LGT RAIN  41  37  87 E12       30.03F
FORT WAYNE     LGT RAIN  42  40  92 E15       30.01F
HUNTINGTON +   CLOUDY    42  41  96 E5        30.00S
KENDALLVILLE + LGT RAIN  40  38  94 E12       30.02F

$$

INZ028-029-035-036-043>045-051>053-260800-
WEST CENTRAL INDIANA

CITY           SKY/WX    TMP DP  RH WIND       PRES   REMARKS
CRAWFORDSVL +  DRIZZLE   56  56 100 SE9       29.92F
GREENCASTLE +  LGT RAIN  55  55 100 S7        29.93F
LAFAYETTE      LGT RAIN  58  57  97 S10       29.91F
TERRE HAUTE    RAIN      59  56  89 S9        29.91S

$$

INZ030>032-037>040-046>048-054>057-064-065-260800-
CENTRAL INDIANA

CITY           SKY/WX    TMP DP  RH WIND       PRES   REMARKS
CP ATTERBURY + CLOUDY    59  54  82 S10       29.96F
FISHERS *+     CLOUDY    55  55 100 S5        29.95F
FRANKFORT +    LGT RAIN  60  58  92 SE10      29.96S
GREENWOOD *+   CLOUDY    59  57  93 S7        29.96F
INDIANAPOLIS   LGT RAIN  57  56  96 SE6       29.94F
-EAGLE CREEK   CLOUDY    58  55  90 SE5       29.94F
KOKOMO +       CLOUDY    49  48  97 E10       29.97F
MARION +       CLOUDY    48  46  92 E9        29.98F FOG
MT COMFORT *+  CLOUDY    57  54  88 S8        29.96F
SHELBYVILLE    LGT RAIN  62  53  72 S15       29.96S
ZIONSVILLE +   DRIZZLE   57  55  93 SE6       29.95F

$$

INZ033-034-041-042-049-050-058-059-260800-
EAST CENTRAL INDIANA

CITY           SKY/WX    TMP DP  RH WIND       PRES   REMARKS
MUNCIE         CLOUDY    58  54  86 SE5       29.97F
RICHMOND +     RAIN      55  54  94 S6        30.01F

$$

INZ060-061-067>069-081>083-085>088-260800-
SOUTHWEST INDIANA

CITY           SKY/WX    TMP DP  RH WIND       PRES   REMARKS
EVANSVILLE     CLOUDY    60  57  89 SE6       29.91F
HUNTINGBURG *+ LGT RAIN  58  56  93 SE12      29.93F
WASHINGTON +   RAIN      58  56  94 MISG      29.92F

$$

INZ062-063-066-070>080-084-089>092-260800-
SOUTH CENTRAL AND SOUTHEAST INDIANA

CITY           SKY/WX    TMP DP  RH WIND       PRES   REMARKS
BLOOMINGTON    LGT RAIN  58  55  90 S9        29.94S
MADISON *+     CLOUDY    59  55  88 SE8       30.02S
NORTH VERNON + LGT RAIN  61  61 100 S9        29.99S
SEYMOUR +      LGT RAIN  59  55  88 S8        29.97F

$$




USA.gov is the U.S. government's official web portal to all federal, state and local government web resources and services.